Probability
0 0 0 0 0 0 0 0 0 0 0 0 0 0 0 0 0 0 0 0 0 0 0 0 0 0 0 0 0 0 0 1 2 3 3 1 0 0 1 1 1 0 1 1
0 0 0 0 0 0 0 0 0 0 0 0 0 0 0 0 0 0 0 0 0 0 0 0 0 0 0 0 0 0 0 0 1 2 3 2 1 0 0 0 0 0 0 1
0 0 0 0 0 0 0 0 0 0 0 0 0 0 0 0 0 0 0 0 0 0 0 0 0 0 0 0 1 1 1 1 1 2 2 2 1 0 0 0 0 0 0 1
0 0 0 0 0 0 0 0 0 0 0 0 0 0 0 0 0 0 0 0 0 0 0 0 0 0 0 0 0 1 1 2 2 1 1 1 0 0 0 0 0 0 1 2
0 0 0 0 0 0 0 0 0 0 0 0 0 0 0 0 0 0 0 0 0 0 0 0 0 0 0 0 0 0 1 1 1 1 0 0 0 0 0 0 0 0 1 2
0 0 0 0 0 0 0 0 0 0 0 0 0 0 0 0 0 0 0 0 0 0 0 0 0 0 0 0 0 0 0 0 0 0 0 0 0 0 0 0 0 0 1 2
0 0 0 0 0 0 0 0 0 0 0 0 0 0 0 0 0 0 0 0 0 0 0 0 0 0 0 0 0 0 0 0 0 0 0 0 0 0 0 0 0 0 0 1
0 0 0 0 0 0 0 0 0 0 0 0 0 0 0 0 0 0 0 0 0 0 0 0 0 0 0 0 0 0 0 0 0 0 0 0 0 0 0 0 0 0 0 0
0 0 0 0 0 0 0 0 0 0 0 0 0 0 0 0 0 0 0 0 0 0 0 0 0 0 0 0 0 0 0 0 0 0 0 0 0 0 0 0 0 0 0 0
0 0 0 0 0 0 0 0 0 0 0 0 0 0 0 0 0 0 0 0 0 0 0 0 0 0 0 0 0 0 0 0 0 0 0 0 0 0 0 0 0 0 0 0
0 0 0 0 0 0 0 0 0 0 0 0 0 0 0 0 0 0 0 0 0 0 0 0 0 0 0 0 0 0 0 0 0 0 0 0 0 0 0 0 0 0 0 0
0 0 0 0 0 0 0 0 0 0 0 0 0 0 0 0 0 0 0 0 0 0 0 0 0 0 0 0 0 0 0 0 0 0 0 0 0 0 0 0 0 0 0 0
0 0 0 0 0 0 0 0 0 0 0 0 0 0 0 0 0 0 0 0 0 0 0 0 0 0 0 0 0 0 0 0 0 0 0 0 0 0 0 0 0 0 0 0
0 0 0 0 0 0 0 0 0 0 0 0 0 0 0 0 0 0 0 0 0 0 0 0 0 0 0 0 0 0 0 0 0 0 0 0 0 0 0 0 0 0 0 0
0 0 0 0 0 0 0 0 0 0 0 0 0 0 0 0 0 0 0 0 0 0 0 0 0 0 0 0 0 0 0 0 0 0 0 0 0 0 0 0 0 0 0 0
0 0 0 0 0 0 0 0 0 0 0 0 0 0 0 0 0 0 0 0 0 0 0 0 0 0 0 0 0 0 0 0 0 0 0 0 0 0 0 0 0 0 0 0
0 0 0 0 0 0 0 0 0 0 0 0 0 0 0 0 0 0 0 0 0 0 0 0 0 0 0 0 0 0 0 0 0 0 0 0 0 0 0 0 0 0 0 0
0 0 0 0 0 0 0 0 0 0 0 0 0 0 0 0 0 0 0 0 0 0 0 0 0 0 0 0 0 0 0 0 0 0 0 0 0 0 0 0 0 0 0 0
0 0 0 0 0 0 0 0 0 0 0 0 0 0 0 0 0 0 0 0 0 0 0 0 0 0 0 0 0 0 0 0 0 0 0 0 0 0 0 0 0 0 0 0
0 0 0 0 0 0 0 0 0 0 0 0 0 0 0 0 0 0 0 0 0 0 0 0 0 0 0 0 0 0 0 0 0 0 0 0 0 0 0 0 0 0 0 0
0 0 0 0 0 0 0 0 0 0 0 0 0 0 0 0 0 0 0 0 0 0 0 0 0 0 0 0 0 0 0 0 0 0 0 0 0 0 0 0 0 0 0 0
0 0 0 0 0 0 0 0 0 0 0 0 0 0 0 0 0 0 0 0 0 0 0 0 0 0 0 0 0 0 0 0 0 0 0 0 0 0 0 0 0 0 0 0
0 0 0 0 0 0 0 0 0 0 0 0 0 0 0 0 0 0 0 0 0 0 0 0 0 0 0 0 0 0 0 0 0 0 0 0 0 0 0 0 0 0 0 0
0 0 0 0 0 0 0 0 0 0 0 0 0 0 0 0 0 0 0 0 0 0 0 0 0 0 0 0 0 0 0 0 0 0 0 0 0 0 0 0 0 0 0 0
0 0 0 0 0 0 0 0 0 0 0 0 0 0 0 0 0 0 0 0 0 0 0 0 0 0 0 0 0 0 0 0 0 0 0 0 0 0 0 0 0 0 0 0
0 0 0 0 0 0 0 0 0 0 0 0 0 0 0 0 0 0 0 0 0 0 0 0 0 0 0 0 0 0 0 0 0 0 0 0 0 0 0 0 0 0 0 0
0 0 0 0 0 0 0 0 0 0 0 0 0 0 0 0 0 0 0 0 0 0 0 0 0 0 0 0 0 0 0 0 0 0 0 0 0 0 0 0 0 0 0 0
Wind_Speed
16 17 16 17 17 13 13 13 14 16 18 17 13 11 10 10 9 9 10 9 8 7 7 8 8 7 7 8 7 6 4 3 3 4 4 5 6 7 8 10 11 11 12 13
14 15 15 19 18 16 15 15 15 16 17 13 11 9 9 8 9 10 10 9 9 8 7 8 8 8 7 8 7 7 5 3 3 3 3 4 5 6 7 8 10 10 11 12
9 9 12 14 12 12 11 10 10 13 12 9 9 9 8 8 8 9 9 9 10 8 7 7 8 7 7 8 7 6 5 4 3 3 3 4 5 6 7 8 9 10 11 12
7 7 11 10 4 5 7 8 7 9 8 7 8 9 7 7 7 7 9 9 9 8 8 7 7 7 7 7 7 6 5 3 3 2 3 3 4 6 7 7 8 8 10 11
5 7 13 9 6 4 5 8 6 7 8 8 8 8 7 5 6 7 8 8 8 7 8 8 8 7 7 7 6 6 5 4 3 2 3 3 4 5 6 6 7 8 9 11
6 8 9 6 1 1 2 7 3 4 6 7 7 7 7 8 9 9 9 8 8 8 8 8 8 7 6 6 6 6 6 4 3 3 3 4 4 4 4 6 6 7 8 9
12 10 11 6 1 3 2 7 3 4 5 6 6 7 9 10 9 8 9 9 8 8 7 7 7 6 6 6 6 6 6 5 3 3 4 4 3 4 4 5 6 7 8 8
7 10 12 3 2 4 7 5 5 6 6 7 8 9 10 10 10 9 9 9 8 7 8 7 7 6 6 7 6 6 5 4 3 3 4 3 3 3 4 6 7 7 8 8
10 11 7 3 5 6 5 6 6 6 7 8 9 10 10 10 9 9 9 9 7 7 8 8 6 5 6 7 6 6 5 4 4 4 4 4 3 4 4 5 6 6 7 7
8 10 9 9 7 6 5 6 6 6 7 7 9 10 10 9 9 9 8 8 7 7 8 7 6 6 6 6 5 6 5 5 4 3 4 3 2 3 4 5 6 6 7 8
12 11 10 9 8 6 6 6 6 7 7 7 9 10 10 9 9 8 8 7 7 7 8 8 7 7 6 5 5 5 5 4 4 3 3 2 2 2 4 4 6 7 7 8
11 7 6 7 5 5 6 6 6 6 7 7 8 9 9 9 8 8 8 7 7 8 8 8 7 7 6 5 5 5 5 4 3 2 2 2 1 0 0 3 5 7 9 9
10 7 7 7 6 6 6 7 6 6 7 8 8 8 8 8 8 8 8 8 8 8 8 8 7 7 6 5 5 5 5 5 3 2 3 2 2 2 2 2 4 7 10 12
5 5 7 6 6 6 6 6 6 6 7 7 7 7 7 8 8 8 9 8 8 8 8 8 7 7 6 5 5 5 5 5 4 3 3 3 3 3 4 4 4 4 7 13
4 4 6 6 6 6 6 5 6 6 6 6 6 6 7 8 9 9 9 8 9 8 8 7 8 8 6 5 5 5 5 4 3 3 3 3 3 3 4 5 5 5 5 8
4 5 5 6 6 6 5 5 5 6 6 6 6 7 7 8 9 9 9 8 8 9 8 7 8 8 7 6 5 5 4 6 5 3 3 3 4 4 4 5 6 6 7 7
4 5 5 6 6 6 6 5 5 5 5 6 7 7 8 8 9 9 9 9 8 8 8 7 8 7 7 6 6 4 4 4 5 4 4 4 4 5 5 5 6 6 5 8
4 5 5 5 5 5 5 5 4 5 5 6 7 7 8 8 9 10 10 10 9 9 8 7 7 7 7 7 5 4 3 3 3 3 3 4 4 5 5 6 7 7 6 7
3 3 3 4 3 3 4 4 5 5 5 5 6 7 8 8 9 10 10 9 9 10 9 8 11 9 7 6 5 3 3 3 2 3 3 5 4 4 5 6 6 7 7 7
2 2 3 3 3 3 4 4 4 5 5 5 6 8 8 9 9 9 9 9 7 7 8 10 9 7 6 5 5 3 3 3 3 3 4 4 5 5 5 6 7 7 7 6
2 2 3 3 4 3 3 4 4 5 6 6 6 8 9 9 9 8 8 9 8 8 9 11 8 6 6 4 5 2 2 2 3 4 4 5 5 5 5 6 6 7 7 7
2 2 3 3 4 4 4 4 4 6 6 6 7 7 8 9 9 8 8 7 8 11 8 6 6 8 8 7 3 2 2 2 3 4 4 5 5 6 6 6 6 7 7 7
2 3 3 3 4 5 5 5 5 5 6 7 7 8 8 8 7 7 8 7 6 11 8 6 9 11 11 6 3 2 1 2 3 4 5 5 5 6 6 6 6 7 7 8
3 3 3 4 4 5 6 6 5 5 6 7 7 7 7 7 6 5 6 10 13 13 7 9 12 11 10 4 2 0 1 2 3 4 5 5 5 5 6 6 6 6 7 9
3 3 4 4 4 4 5 6 6 6 6 5 6 7 5 5 6 7 7 8 11 11 7 8 10 10 5 2 1 1 2 3 4 5 5 5 6 6 6 6 6 7 8 8
3 3 4 4 4 4 4 4 5 5 5 6 6 5 5 4 5 6 6 7 9 10 7 5 5 5 3 2 1 1 2 4 4 4 5 5 6 6 7 7 8 7 8 8
4 4 3 4 4 3 4 4 5 5 5 6 7 6 5 5 5 5 6 6 6 5 5 4 3 3 2 1 1 1 2 3 4 5 5 5 5 6 7 8 7 7 8 9
Wind_Direction
264 274 277 274 274 266 253 250 259 273 280 288 300 308 311 314 319 326 324 328 331 331 332 331 331 330 329 324 323 319 296 276 267 252 231 209 197 191 190 187 180 181 181 179
274 272 274 273 269 265 262 260 261 272 276 284 295 302 306 311 317 319 320 325 327 327 328 328 325 326 327 323 321 317 303 288 287 266 232 208 199 189 186 185 179 177 180 178
275 287 293 270 257 250 249 251 257 267 276 299 307 307 308 313 314 313 321 325 324 322 321 318 317 320 320 317 315 312 304 303 292 290 248 212 199 187 186 183 177 179 179 177
278 294 256 250 242 254 265 266 265 275 292 303 304 308 307 306 309 317 322 319 317 316 315 311 310 314 314 313 313 309 299 298 299 298 271 226 200 190 189 182 179 183 179 177
259 264 271 273 264 250 264 279 274 283 301 312 315 313 303 320 331 323 315 311 311 311 310 310 309 310 315 315 313 309 299 295 297 295 276 240 210 198 188 180 180 182 178 174
244 257 262 270 319 44 349 280 274 297 306 315 325 311 301 321 321 315 313 310 310 309 310 310 309 311 312 311 312 310 305 297 296 293 278 253 217 204 192 180 181 178 173 173
239 252 264 271 109 77 232 259 306 312 303 305 296 280 294 310 309 305 305 304 306 305 302 300 304 308 307 305 305 302 299 295 291 291 284 260 228 204 190 179 176 177 168 167
219 235 251 220 143 212 240 287 306 302 299 296 294 297 302 304 305 306 305 303 304 300 296 296 299 300 300 298 299 300 296 294 288 287 287 266 217 200 190 179 173 174 165 161
211 230 258 253 246 252 275 288 290 294 299 300 300 300 303 303 304 303 302 302 299 296 295 294 295 292 291 293 298 299 297 298 287 283 277 257 221 197 189 181 172 173 166 161
255 256 262 271 275 276 278 284 295 298 300 302 299 300 302 302 301 301 299 300 300 299 296 294 295 288 285 291 295 293 291 292 286 280 278 263 237 206 193 185 177 175 170 163
256 266 277 268 269 279 283 287 293 296 296 296 297 298 299 300 299 299 299 298 298 297 294 292 294 291 292 295 298 294 288 284 283 275 274 281 273 227 209 207 191 180 176 166
253 255 259 277 291 296 290 283 284 292 298 297 294 296 298 298 299 300 301 300 300 297 295 295 294 291 291 292 290 286 283 279 270 258 262 250 241 335 120 192 182 180 172 162
262 275 274 285 298 302 297 295 293 290 290 294 294 294 298 300 301 302 302 301 299 297 295 296 293 289 288 289 287 281 276 272 262 247 241 232 205 175 148 97 134 150 149 149
275 286 282 284 290 295 291 291 292 292 291 292 296 301 301 300 303 303 301 300 298 296 295 297 296 292 292 292 287 280 275 266 251 238 227 218 206 187 169 156 144 133 134 142
272 273 275 290 293 291 290 294 297 294 296 301 304 306 307 307 305 303 302 301 300 297 296 300 299 297 298 292 284 277 271 257 240 224 216 212 201 180 166 155 143 137 129 134
279 279 281 282 283 289 293 293 291 294 301 305 309 311 309 305 303 303 305 303 301 299 299 298 294 296 299 291 285 280 270 259 245 217 206 205 192 171 158 149 143 144 149 148
266 269 276 281 283 288 289 286 287 293 300 304 307 309 310 309 307 308 310 307 299 296 296 292 290 294 295 288 283 274 265 258 243 216 203 194 183 167 156 151 147 145 148 155
245 258 268 272 278 285 291 296 299 301 300 299 305 307 307 307 305 305 308 310 309 305 302 299 298 299 295 289 280 266 255 247 226 197 183 175 169 158 150 148 147 143 139 146
263 270 281 290 296 292 292 296 299 299 301 304 305 303 301 300 301 302 305 309 308 307 309 313 308 303 293 287 283 265 253 238 211 182 166 159 153 148 149 149 146 144 144 146
284 286 292 305 310 300 296 297 300 302 304 304 303 302 302 303 304 305 306 301 294 293 302 310 310 305 299 289 288 270 252 223 177 161 156 152 147 145 146 146 145 143 143 144
287 295 302 301 296 295 295 301 304 302 304 302 297 297 298 299 302 303 303 302 303 306 308 309 308 304 302 297 292 268 243 196 166 157 153 148 144 141 140 142 143 142 141 139
293 293 295 298 298 300 304 307 300 297 297 297 295 295 298 300 302 300 290 287 297 306 311 307 305 306 311 309 293 269 228 187 162 151 149 144 141 139 141 141 140 139 139 138
290 293 297 299 300 301 304 301 295 293 292 293 295 295 295 294 296 298 299 300 305 307 309 301 303 309 313 310 291 264 217 168 152 147 142 139 138 139 141 141 139 140 140 137
298 299 297 301 304 300 296 294 293 292 289 289 286 286 289 295 295 287 285 297 304 305 304 301 306 310 312 306 296 258 138 132 134 136 133 132 132 134 136 138 137 137 136 134
288 285 285 287 286 283 287 297 299 294 291 289 287 285 283 279 285 295 298 298 301 306 304 304 310 312 312 309 315 132 129 131 131 132 132 134 136 136 136 136 135 134 133 133
280 278 275 272 274 281 288 291 293 296 300 300 300 298 298 294 290 293 297 298 298 302 304 305 307 311 315 321 334 123 130 129 126 125 130 131 134 135 134 132 130 130 130 130
274 274 278 281 279 276 281 286 290 293 296 297 300 302 303 303 302 302 302 303 304 306 308 308 308 309 314 339 42 88 106 112 117 122 126 126 129 130 131 130 128 127 128 130